FENGYUN 1C DEB, 31627

Orbit data source: Space-Track

FENGYUN 1C DEB, 31627 is space debris in SSO originally from a launch on Mon, 10 May 1999 UTC launched from the Taiyaun Space Center, China (TSC). Fengyun 1C debris stems from the Chinese weather satellite Fengyun-1C, which was intentionally destroyed by a Chinese anti-satellite missile in 2007. This event dramatically increased the amount of space debris, with thousands of trackable fragments posing hazards to satellites and human spaceflight. The Fengyun 1C debris cloud has become a focal point in discussions about space sustainability and the need for international regulations to prevent the creation of new debris.

Loading next visibility...
Identifier
31627, 1999-025CAH
Orbit
SSO
Country
Flag of CNCN / PRC
Related business
Manufacturer
Unknown
Mission
Spacecraft
Bus & Motor
Unknown
Mass
Unknown
Launch date (UTC)
1999-05-10 (27 years ago)
Launch vehicle
Unknown
Launch site
Taiyaun Space Center, China (TSC)
Object type
Payload
Rocket body
Debris
Shape & HBR
Unknown shape, 0.1 m
Radar Cross Section
Small (<0.1 m²)

Expand to show TLE details & history
Last TLE update: 3 weeks ago

TLE from 3 weeks ago
0 FENGYUN 1C DEB
1 31627U 99025CAH 25330.38429370  .00003885  00000-0  13474-2 0  9998
2 31627  98.5313  18.4415 0051593 201.9005 157.9975 14.35408996645325
Epoch: 2025-11-26T09:13Z
TLE epoch observation values (Epoch: 2025-11-26T09:13:22.975Z)
Latitude
-0.00008°
Longitude
174.53945°
Altitude
810.893 km
Speed
7.43 km/s
True Right ascension
01h 13m 45s
True Declination
0° 00' 00"
Sunlit
Object was in full shadow at epoch
Visualization orbit readout
Latitude
Unknown
Longitude
Unknown
Altitude
Unknown
Speed
Unknown
Apparent Right ascension
Unknown
Apparent Declination
Unknown
Sunlit
N/A
Visualization observer readout
Local Sidereal Time
04:50:35
Azimuth
Unknown
Elevation
Unknown
Doppler factor
Unknown
Orbital elements
Apogee altitude
807.721 km
Perigee altitude
733.953 km
Semi-major axis
7,148.974 km
Eccentricity
0.00516
Inclination
98.5313°
RAAN
18.4415°
Arg. of periapsis
201.9005°
True anomaly
158.21768°
Mean anomaly
157.9975°
Eccentric anomaly
158.10772°
Mean motion
3.59069 °/min
Orbital period
100.26 mins
BSTAR
0.0013474
Loading maneuver chart data...
Computing Atmospheric mass density...

Documentation

Showing up to 5 results
|